Погода в Чернышевке

Россия / Тамбовская область     53°09′40″N   40°10′21″E
темп.,
°C
ветер,
м/с
пор.,
м/с
влажн.,
%
обл.,
%
осадки,
мм/ч
давл.,
гПа
погр.,
м
20 апреля, вт
вт2000:00+6всв51180100 0.0 1019482
03:00+6в61286100 0.0 1019574
06:00+6в71191100 0.1 1018664
09:00+4в71195100 1.3 1018667
12:00+4в71291100 0.4 1017726
15:00+4в71290100 1.5 1015700
18:00+3в81592100 0.5 1012676
21:00+3в81693100 3.9 1009679
21 апреля, ср
ср2100:00+5в61395100 7.5 1003738
03:00+7ююв61595100 11.3 1001573
06:00+9ююв81388100 0.3 1001914
09:00+8ююз71192100 0.8 1003862
12:00+5зюз6993100 0.3 1007645
15:00+6зюз6979100 0.3 1010894
18:00+7юз4883100 0.0 10121002
21:00+6ююв2391100 0.1 101498
22 апреля, чт
чт2200:00+6ю499363 0.1 1014335
03:00+5юз489397 0.1 1015415
06:00+5зюз4784100 0.1 1017555
09:00+8юз357259 0.1 1019725
12:00+10юз576249 0.3 10191311
15:00+12юз575793 0.4 10191439
18:00+12ю486618 0.4 1019484
21:00+8ю378240 0.5 1020136
23 апреля, пт
пт2300:00+8ю49885 0.0 1019176
03:00+7ю389181 0.0 1019154
06:00+7ю410909 0.1 1020195
09:00+13ююз596584 0.1 1020511
12:00+17ююз6843100 0.0 10192602
15:00+15ю685382 0.0 10181502
18:00+15ююв59565 0.0 1017495
21:00+11ююв49735 0.1 1016160
24 апреля, сб
сб2400:00+9ююв4118272 0.0 1015223
03:00+8ююв5118842 0.0 1013238
06:00+8ю4108880 0.1 1013259
09:00+12ю597292 0.1 1011826
12:00+7зсз7788100 1.9 1012507
15:00+4сз4792100 5.7 1013514
18:00+7зсз3675100 0.1 1013887
21:00+5з22847 0.1 101334